CW2028 Weather Reports


time (UTC)temp
F
wind
direction
speed
knots
gust
knots
rain 1hr
in
rain 24hr
in
rain mn
in
humidity
%
barometer
mb
20260504235224 81 203 4.3 8.7 0.00 0.00 0.00 45 1001.0
20260504234225 81 262 4.3 13.9 0.00 0.00 0.00 47 1000.9
20260504233220 82 259 2.6 8.7 0.00 0.00 0.00 44 1000.8
20260504232237 82 282 3.5 7.0 0.00 0.00 0.00 43 1000.7
20260504231217 82 156 3.5 9.6 0.00 0.00 0.00 42 1000.8
20260504230215 82 139 4.3 13.0 0.00 0.00 0.00 47 1000.9
20260504225212 83 275 1.7 6.1 0.00 0.00 0.00 43 1000.9
20260504224230 83 236 5.2 10.4 0.00 0.00 0.00 43 1001.0
20260504223229 83 222 4.3 9.6 0.00 0.00 0.00 44 1001.0
20260504222228 82 157 4.3 10.4 0.00 0.00 0.00 46 1001.0
20260504221223 83 160 4.3 10.4 0.00 0.00 0.00 45 1001.0
20260504220223 83 221 5.2 13.0 0.00 0.00 0.00 43 1001.0
20260504215240 83 199 4.3 9.6 0.00 0.00 0.00 45 1001.0
20260504214214 83 235 5.2 13.0 0.00 0.00 0.00 43 1001.1
20260504213212 82 136 4.3 14.8 0.00 0.00 0.00 43 1001.1
20260504212231 82 221 5.2 11.3 0.00 0.00 0.00 44 1001.2
20260504211228 82 262 3.5 13.9 0.00 0.00 0.00 44 1001.2
20260504210223 82 149 4.3 11.3 0.00 0.00 0.00 47 1001.2
20260504205223 81 278 7.0 13.0 0.00 0.00 0.00 44 1001.3
20260504204218 81 264 3.5 12.2 0.00 0.00 0.00 48 1001.3
20260504203215 81 139 3.5 10.4 0.00 0.00 0.00 46 1001.3
20260504202215 81 143 4.3 11.3 0.00 0.00 0.00 47 1001.4
20260504201231 80 190 5.2 12.2 0.00 0.00 0.00 46 1001.5
20260504200225 80 282 3.5 10.4 0.00 0.00 0.00 47 1001.6
20260504195221 80 174 5.2 10.4 0.00 0.00 0.00 45 1001.6
20260504194222 80 246 3.5 9.6 0.00 0.00 0.00 47 1001.7
20260504193219 80 212 3.5 10.4 0.00 0.00 0.00 47 1001.8
20260504192234 79 254 6.1 15.6 0.00 0.00 0.00 46 1001.9
20260504191230 80 229 3.5 9.6 0.00 0.00 0.00 47 1002.0
20260504190229 79 185 5.2 13.0 0.00 0.00 0.00 46 1002.1
20260504185228 79 169 3.5 11.3 0.00 0.00 0.00 48 1002.0
20260504184221 79 128 5.2 13.0 0.00 0.00 0.00 48 1002.3
20260504183221 79 262 4.3 10.4 0.00 0.00 0.00 47 1002.1
20260504182218 78 264 5.2 11.3 0.00 0.00 0.00 47 1002.2
20260504181234 78 123 2.6 13.9 0.00 0.00 0.00 48 1002.2
20260504180229 78 200 4.3 9.6 0.00 0.00 0.00 45 1002.3
20260504175229 77 105 5.2 8.7 0.00 0.00 0.00 51 1002.4
20260504174227 76 242 3.5 11.3 0.00 0.00 0.00 51 1002.4
20260504173222 76 152 6.1 14.8 0.00 0.00 0.00 50 1002.4
20260504172223 75 226 5.2 11.3 0.00 0.00 0.00 50 1002.5
20260504171218 75 224 4.3 10.4 0.00 0.00 0.00 51 1002.7
20260504170215 74 218 4.3 12.2 0.00 0.00 0.00 53 1002.8
20260504160219 73 271 5.2 16.5 0.00 0.00 0.00 52 1003.1
20260504150222 70 169 5.2 13.0 0.00 0.00 0.00 55 1003.3
20260504141215 68 195 3.5 11.3 0.00 0.00 0.00 60 1003.5
20260504140213 68 167 5.2 9.6 0.00 0.00 0.00 59 1003.7
20260504130217 64 211 2.6 8.7 0.00 0.00 0.00 66 1004.0
20260504120236 59 147 2.6 4.3 0.00 0.00 0.00 76 1004.3
20260504110222 57 162 0.0 0.0 0.00 0.00 0.00 80 1004.6
20260504100248 57 146 0.0 0.0 0.00 0.00 0.00 80 1005.4
20260504081215 62 200 0.9 1.7 0.00 0.00 0.00 70 1006.0
20260504080231 63 193 0.0 0.9 0.00 0.00 0.00 67 1006.1
20260504070216 66 179 1.7 3.5 0.00 0.00 0.00 61 1006.0
20260504060220 67 130 1.7 3.5 0.00 0.00 0.00 62 1006.0
20260504050221 64 241 0.0 1.7 0.00 0.00 0.00 62 1007.0
20260504045216 63 145 0.0 0.9 0.00 0.00 0.00 62 1007.3
20260504044237 63 161 0.9 1.7 0.00 0.00 0.00 62 1007.5
20260504043234 63 294 0.0 0.9 0.00 0.00 0.00 65 1007.6
20260504042229 62 148 0.0 0.9 0.00 0.00 0.00 66 1007.7
20260504041226 62 202 0.0 0.9 0.00 0.00 0.00 65 1007.6
20260504040226 62 98 0.0 1.7 0.00 0.00 0.00 66 1007.6
20260504035221 63 19 0.0 0.9 0.00 0.00 0.00 66 1007.8
20260504034218 61 19 0.0 0.9 0.00 0.00 0.00 69 1007.9
20260504033218 61 1 0.0 0.0 0.00 0.00 0.00 76 1008.1
20260504032214 61 1 0.0 0.0 0.00 0.00 0.00 71 1008.1
20260504031231 62 1 0.0 0.0 0.00 0.00 0.00 69 1008.1
20260504030246 62 1 0.0 0.0 0.00 0.00 0.00 69 1008.3
20260504025224 63 1 0.0 0.0 0.00 0.00 0.00 69 1008.2
20260504024221 63 1 0.0 0.0 0.00 0.00 0.00 69 1008.2
20260504023217 64 1 0.0 0.9 0.00 0.00 0.00 67 1008.1
20260504022217 64 1 0.0 0.0 0.00 0.00 0.00 64 1008.2
20260504021214 64 1 0.0 0.0 0.00 0.00 0.00 63 1008.1
20260504020249 65 1 0.0 0.0 0.00 0.00 0.00 61 1008.1
20260504015224 67 1 0.0 0.0 0.00 0.00 0.00 60 1007.9
20260504014222 68 1 0.0 0.0 0.00 0.00 0.00 56 1008.0
20260504013218 69 1 0.0 0.0 0.00 0.00 0.00 55 1007.8
20260504012234 71 1 0.0 0.0 0.00 0.00 0.00 53 1007.8